Location: Pittsburgh
(40.4410°N, 79.9960°W)
Time: 16:24:09
(UTC-04:00)

ARIANE 6 FM1 Upper Stage - Pass Details

Date: 13 March 2026
Orbit: 524 x 604 km, 62.0° (Epoch: 11 April)

Event Time Altitude Azimuth Distance (km) Brightness Sun altitude
Exits shadow 06:46:51 11° 289° (WNW) 1,716 4.6 -9.9°
Maximum altitude 06:48:54 16° 322° (NW) 1,481 4.5 -9.5°
Drops below altitude 10° 06:51:22 10° 360° (N) 1,792 5.3 -9.1°
Sets 06:54:19 0° 23° (NNE) 2,674 6.5 -8.5°
